User: anonymous   Login
Location: Unspecified
(0.0000°N, 0.0000°E)
Time: 10:17:54
(UTC+00:00)
Language:

COSMOS 2401 - Orbit

View from above orbital plane
View from above orbital plane
View from above satellite
View from above satellite

Ground track
Ground track

The orbit data is extracted from the following two-line orbital elements,

1 27869U 03037B   17080.83073357 -.00000001 +00000-0 -72970-4 0  9999
2 27869 082.4662 283.3498 0021821 239.2023 120.6907 12.45450808617853
Epoch (UTC): 21 March 2017 19:56:15
Eccentricity: 0.0021821
inclination: 82.4662°
perigee height: 1466 km
apogee height: 1501 km
right ascension of ascending node: 283.3498°
argument of perigee: 239.2023°
revolutions per day: 12.45450808
mean anomaly at epoch: 120.6907°
orbit number at epoch: 61785

The dashed part of the orbit path shows where the satellite is in the earth's shadow,  

DLR